Smit Clyde — CFG7577 — position and weather

sailwx.info

Track history (hours):
 
Tides and Currents Weather Stations Pressure Air Temp Water Temp Dewpoint Dewpoint Depression Visibility Wind Speed Wind Dir Waves Ship Positions

Smit Clyde

Last reported at 2014-Aug-30 00:26 UTC. Time now 2014-Aug-30 10:31 UTC.
Position N 54°16' W 130°21'.

Length 28 m; draft 6 m.

Type: Towing. MMSI: 316011473.

Date/timePositionNaut miles runAvg speedWind from/ knotsBaromVisibWave heightAir tempDewpointWater temp
2014-Aug-30 00:26N 54°16' W 130°21'1 1.6
2014-Aug-29 23:33N 54°17' W 130°22'0 0.4
2014-Aug-29 22:33N 54°18' W 130°21'0 0.0
2014-Aug-29 21:33N 54°18' W 130°21'0 0.0
2014-Aug-29 20:34N 54°18' W 130°21'0 0.0
2014-Aug-29 19:34N 54°18' W 130°21'0 0.0
2014-Aug-29 18:33N 54°18' W 130°21'0 0.0
2014-Aug-28 16:33N 54°18' W 130°21'0 0.0
2014-Aug-28 15:33N 54°18' W 130°21'0 0.0
2014-Aug-28 14:33N 54°18' W 130°21'0 0.0
2014-Aug-28 13:33N 54°18' W 130°21'0 0.0
2014-Aug-28 12:33N 54°18' W 130°21'0 0.0
2014-Aug-28 11:33N 54°18' W 130°21'0 0.0
2014-Aug-28 10:33N 54°18' W 130°21'0 0.0
2014-Aug-28 09:33N 54°18' W 130°21'0 0.0
2014-Aug-28 08:34N 54°18' W 130°21'0 0.0
2014-Aug-28 07:34N 54°18' W 130°21'0 0.0
2014-Aug-28 06:33N 54°18' W 130°21'0 0.0
2014-Aug-28 05:33N 54°18' W 130°21'0 0.0
2014-Aug-28 04:33N 54°18' W 130°21'0 0.0
2014-Aug-28 03:33N 54°18' W 130°21'0 0.0
2014-Aug-28 02:33N 54°18' W 130°21'0 0.0
2014-Aug-28 01:33N 54°18' W 130°21'0 0.0
2014-Aug-28 00:33N 54°18' W 130°21'0 0.0
2014-Aug-27 18:04N 54°18' W 130°21'0 0.0
2014-Aug-27 17:34N 54°18' W 130°21'0 0.0
2014-Aug-27 16:33N 54°18' W 130°21'0 0.0
2014-Aug-27 15:34N 54°18' W 130°21'0 0.0
2014-Aug-27 14:33N 54°18' W 130°21'0 0.0
2014-Aug-27 13:33N 54°18' W 130°21'0 0.0
2014-Aug-27 12:33N 54°18' W 130°21'0 0.0
2014-Aug-27 11:33N 54°18' W 130°21'0 0.0
2014-Aug-27 10:33N 54°18' W 130°21'0 0.0
2014-Aug-27 09:33N 54°18' W 130°21'0 0.0
2014-Aug-27 08:34N 54°18' W 130°21'0 0.0
2014-Aug-27 07:33N 54°18' W 130°21'0 0.4
2014-Aug-27 06:33N 54°17' W 130°22'1 0.9
2014-Aug-27 05:34N 54°18' W 130°22'6 5.8
2014-Aug-27 04:33N 54°12' W 130°21'5 5.3
2014-Aug-27 03:33N 54°18' W 130°21'0 0.0
2014-Aug-27 02:33N 54°18' W 130°21'0 0.0
2014-Aug-27 01:33N 54°18' W 130°21'0 0.0
2014-Aug-26 19:24N 54°18' W 130°21'  
2014-Aug-23 23:23N 54°18' W 130°21'0 0.0
2014-Aug-23 22:33N 54°18' W 130°21'0 0.0
2014-Aug-23 21:33N 54°18' W 130°21'0 0.0
2014-Aug-23 20:33N 54°18' W 130°21'0 0.0
2014-Aug-23 19:33N 54°18' W 130°21'0 0.0
2014-Aug-23 03:19N 54°18' W 130°21'0 0.0
2014-Aug-23 02:33N 54°18' W 130°21'0 0.0
2014-Aug-23 01:33N 54°18' W 130°21'0 0.0
2014-Aug-23 00:33N 54°18' W 130°21'0 0.0
2014-Aug-22 23:33N 54°18' W 130°21'0 0.0
2014-Aug-22 22:33N 54°18' W 130°21'0 0.0
2014-Aug-22 21:33N 54°18' W 130°21'0 0.4
2014-Aug-22 20:33N 54°17' W 130°22'4 3.5
2014-Aug-22 19:29N 54°13' W 130°21'4 4.4
2014-Aug-22 18:34N 54°18' W 130°21'0 0.1
2014-Aug-22 17:33N 54°18' W 130°21'0 0.0
2014-Aug-22 16:33N 54°18' W 130°21'0 0.0
2014-Aug-22 15:33N 54°18' W 130°21'0 0.0
2014-Aug-22 14:33N 54°18' W 130°21'0 0.0
2014-Aug-22 13:33N 54°18' W 130°21'0 0.0
2014-Aug-22 12:33N 54°18' W 130°21'0 0.0
2014-Aug-22 11:33N 54°18' W 130°21'0 0.0
2014-Aug-22 10:33N 54°18' W 130°21'0 0.0
2014-Aug-22 09:33N 54°18' W 130°21'0 0.0
2014-Aug-22 08:33N 54°18' W 130°21'0 0.0
2014-Aug-22 07:33N 54°18' W 130°21'0 0.0
2014-Aug-22 06:33N 54°18' W 130°21'0 0.0
2014-Aug-22 05:33N 54°18' W 130°21'0 0.0
2014-Aug-22 04:33N 54°18' W 130°21'0 0.0
2014-Aug-22 03:33N 54°18' W 130°21'0 0.0
2014-Aug-22 02:33N 54°18' W 130°21'0 0.0
2014-Aug-22 01:33N 54°18' W 130°21'0 0.0
2014-Aug-22 00:33N 54°18' W 130°21'0 0.0
2014-Aug-21 23:33N 54°18' W 130°21'0 0.0
2014-Aug-21 22:33N 54°18' W 130°21'0 0.0
2014-Aug-21 21:33N 54°18' W 130°21'0 0.0
2014-Aug-21 20:33N 54°18' W 130°21'0 0.0
2014-Aug-21 19:33N 54°18' W 130°21'0 0.0
2014-Aug-21 18:33N 54°18' W 130°21'0 0.0
2014-Aug-21 17:33N 54°18' W 130°21'0 0.0
2014-Aug-21 16:33N 54°18' W 130°21'0 0.0
2014-Aug-21 15:33N 54°18' W 130°21'0 0.0
2014-Aug-21 14:33N 54°18' W 130°21'0 0.0
2014-Aug-21 13:33N 54°18' W 130°21'0 0.0
2014-Aug-21 12:33N 54°18' W 130°21'0 0.0
2014-Aug-21 11:33N 54°18' W 130°21'0 0.0
2014-Aug-21 10:33N 54°18' W 130°21'0 0.0
2014-Aug-21 09:33N 54°18' W 130°21'0 0.0
2014-Aug-21 08:33N 54°18' W 130°21'0 0.0
2014-Aug-21 07:33N 54°18' W 130°21'0 0.0
2014-Aug-21 06:33N 54°18' W 130°21'0 0.0
2014-Aug-21 05:33N 54°18' W 130°21'0 0.4
2014-Aug-21 04:33N 54°18' W 130°22'5 4.3
2014-Aug-21 03:28N 54°13' W 130°21'3 3.3
2014-Aug-21 02:33N 54°16' W 130°22'2 1.5
2014-Aug-21 01:33N 54°18' W 130°21'0 0.0
2014-Aug-21 00:33N 54°18' W 130°21'0 0.0
2014-Aug-20 23:33N 54°18' W 130°21'0 0.0
2014-Aug-20 22:33N 54°18' W 130°21'0 0.0
2014-Aug-20 21:33N 54°18' W 130°21'0 0.0
2014-Aug-20 20:33N 54°18' W 130°21'0 0.0
2014-Aug-20 19:33N 54°18' W 130°21'0 0.0
2014-Aug-20 18:33N 54°18' W 130°21'0 0.0
2014-Aug-20 17:33N 54°18' W 130°21'0 0.0
2014-Aug-20 16:33N 54°18' W 130°21'0 0.0
2014-Aug-20 15:33N 54°18' W 130°21'0 0.0
2014-Aug-20 14:33N 54°18' W 130°21'0 0.0
2014-Aug-20 13:33N 54°18' W 130°21'0 0.0
2014-Aug-20 12:33N 54°18' W 130°21'0 0.0
2014-Aug-20 11:33N 54°18' W 130°21'0 0.0
2014-Aug-20 10:33N 54°18' W 130°21'0 0.0
2014-Aug-20 09:33N 54°18' W 130°21'0 0.0
2014-Aug-20 08:33N 54°18' W 130°21'0 0.0
2014-Aug-20 07:33N 54°18' W 130°21'0 0.0
2014-Aug-20 06:33N 54°18' W 130°21'0 0.0
2014-Aug-20 05:33N 54°18' W 130°21'0 0.0
2014-Aug-20 04:33N 54°18' W 130°21'0 0.0
2014-Aug-20 03:33N 54°18' W 130°21'0 0.0
2014-Aug-20 02:33N 54°18' W 130°21'0 0.0
2014-Aug-20 01:33N 54°18' W 130°21'0 0.0
2014-Aug-20 00:33N 54°18' W 130°21'  
Track history (hours):
 
Tides and Currents Weather Stations Pressure Air Temp Water Temp Dewpoint Dewpoint Depression Visibility Wind Speed Wind Dir Waves Ship Positions

Smit Clyde

Last reported at 2014-Aug-30 00:26 UTC. Time now 2014-Aug-30 10:31 UTC.
Position N 54°16' W 130°21'.

Length 28 m; draft 6 m.

Type: Towing. MMSI: 316011473.

Date/timePositionNaut miles runAvg speedWind from/ knotsBaromVisibWave heightAir tempDewpointWater temp
2014-Aug-30 00:26N 54°16' W 130°21'1 1.6
2014-Aug-29 23:33N 54°17' W 130°22'0 0.4
2014-Aug-29 22:33N 54°18' W 130°21'0 0.0
2014-Aug-29 21:33N 54°18' W 130°21'0 0.0
2014-Aug-29 20:34N 54°18' W 130°21'0 0.0
2014-Aug-29 19:34N 54°18' W 130°21'0 0.0
2014-Aug-29 18:33N 54°18' W 130°21'0 0.0
2014-Aug-28 16:33N 54°18' W 130°21'0 0.0
2014-Aug-28 15:33N 54°18' W 130°21'0 0.0
2014-Aug-28 14:33N 54°18' W 130°21'0 0.0
2014-Aug-28 13:33N 54°18' W 130°21'0 0.0
2014-Aug-28 12:33N 54°18' W 130°21'0 0.0
2014-Aug-28 11:33N 54°18' W 130°21'0 0.0
2014-Aug-28 10:33N 54°18' W 130°21'0 0.0
2014-Aug-28 09:33N 54°18' W 130°21'0 0.0
2014-Aug-28 08:34N 54°18' W 130°21'0 0.0
2014-Aug-28 07:34N 54°18' W 130°21'0 0.0
2014-Aug-28 06:33N 54°18' W 130°21'0 0.0
2014-Aug-28 05:33N 54°18' W 130°21'0 0.0
2014-Aug-28 04:33N 54°18' W 130°21'0 0.0
2014-Aug-28 03:33N 54°18' W 130°21'0 0.0
2014-Aug-28 02:33N 54°18' W 130°21'0 0.0
2014-Aug-28 01:33N 54°18' W 130°21'0 0.0
2014-Aug-28 00:33N 54°18' W 130°21'0 0.0
2014-Aug-27 18:04N 54°18' W 130°21'0 0.0
2014-Aug-27 17:34N 54°18' W 130°21'0 0.0
2014-Aug-27 16:33N 54°18' W 130°21'0 0.0
2014-Aug-27 15:34N 54°18' W 130°21'0 0.0
2014-Aug-27 14:33N 54°18' W 130°21'0 0.0
2014-Aug-27 13:33N 54°18' W 130°21'0 0.0
2014-Aug-27 12:33N 54°18' W 130°21'0 0.0
2014-Aug-27 11:33N 54°18' W 130°21'0 0.0
2014-Aug-27 10:33N 54°18' W 130°21'0 0.0
2014-Aug-27 09:33N 54°18' W 130°21'0 0.0
2014-Aug-27 08:34N 54°18' W 130°21'0 0.0
2014-Aug-27 07:33N 54°18' W 130°21'0 0.4
2014-Aug-27 06:33N 54°17' W 130°22'1 0.9
2014-Aug-27 05:34N 54°18' W 130°22'6 5.8
2014-Aug-27 04:33N 54°12' W 130°21'5 5.3
2014-Aug-27 03:33N 54°18' W 130°21'0 0.0
2014-Aug-27 02:33N 54°18' W 130°21'0 0.0
2014-Aug-27 01:33N 54°18' W 130°21'0 0.0
2014-Aug-26 19:24N 54°18' W 130°21'  
2014-Aug-23 23:23N 54°18' W 130°21'0 0.0
2014-Aug-23 22:33N 54°18' W 130°21'0 0.0
2014-Aug-23 21:33N 54°18' W 130°21'0 0.0
2014-Aug-23 20:33N 54°18' W 130°21'0 0.0
2014-Aug-23 19:33N 54°18' W 130°21'0 0.0
2014-Aug-23 03:19N 54°18' W 130°21'0 0.0
2014-Aug-23 02:33N 54°18' W 130°21'0 0.0
2014-Aug-23 01:33N 54°18' W 130°21'0 0.0
2014-Aug-23 00:33N 54°18' W 130°21'0 0.0
2014-Aug-22 23:33N 54°18' W 130°21'0 0.0
2014-Aug-22 22:33N 54°18' W 130°21'0 0.0
2014-Aug-22 21:33N 54°18' W 130°21'0 0.4
2014-Aug-22 20:33N 54°17' W 130°22'4 3.5
2014-Aug-22 19:29N 54°13' W 130°21'4 4.4
2014-Aug-22 18:34N 54°18' W 130°21'0 0.1
2014-Aug-22 17:33N 54°18' W 130°21'0 0.0
2014-Aug-22 16:33N 54°18' W 130°21'0 0.0
2014-Aug-22 15:33N 54°18' W 130°21'0 0.0
2014-Aug-22 14:33N 54°18' W 130°21'0 0.0
2014-Aug-22 13:33N 54°18' W 130°21'0 0.0
2014-Aug-22 12:33N 54°18' W 130°21'0 0.0
2014-Aug-22 11:33N 54°18' W 130°21'0 0.0
2014-Aug-22 10:33N 54°18' W 130°21'0 0.0
2014-Aug-22 09:33N 54°18' W 130°21'0 0.0
2014-Aug-22 08:33N 54°18' W 130°21'0 0.0
2014-Aug-22 07:33N 54°18' W 130°21'0 0.0
2014-Aug-22 06:33N 54°18' W 130°21'0 0.0
2014-Aug-22 05:33N 54°18' W 130°21'0 0.0
2014-Aug-22 04:33N 54°18' W 130°21'0 0.0
2014-Aug-22 03:33N 54°18' W 130°21'0 0.0
2014-Aug-22 02:33N 54°18' W 130°21'0 0.0
2014-Aug-22 01:33N 54°18' W 130°21'0 0.0
2014-Aug-22 00:33N 54°18' W 130°21'0 0.0
2014-Aug-21 23:33N 54°18' W 130°21'0 0.0
2014-Aug-21 22:33N 54°18' W 130°21'0 0.0
2014-Aug-21 21:33N 54°18' W 130°21'0 0.0
2014-Aug-21 20:33N 54°18' W 130°21'0 0.0
2014-Aug-21 19:33N 54°18' W 130°21'0 0.0
2014-Aug-21 18:33N 54°18' W 130°21'0 0.0
2014-Aug-21 17:33N 54°18' W 130°21'0 0.0
2014-Aug-21 16:33N 54°18' W 130°21'0 0.0
2014-Aug-21 15:33N 54°18' W 130°21'0 0.0
2014-Aug-21 14:33N 54°18' W 130°21'0 0.0
2014-Aug-21 13:33N 54°18' W 130°21'0 0.0
2014-Aug-21 12:33N 54°18' W 130°21'0 0.0
2014-Aug-21 11:33N 54°18' W 130°21'0 0.0
2014-Aug-21 10:33N 54°18' W 130°21'0 0.0
2014-Aug-21 09:33N 54°18' W 130°21'0 0.0
2014-Aug-21 08:33N 54°18' W 130°21'0 0.0
2014-Aug-21 07:33N 54°18' W 130°21'0 0.0
2014-Aug-21 06:33N 54°18' W 130°21'0 0.0
2014-Aug-21 05:33N 54°18' W 130°21'0 0.4
2014-Aug-21 04:33N 54°18' W 130°22'5 4.3
2014-Aug-21 03:28N 54°13' W 130°21'3 3.3
2014-Aug-21 02:33N 54°16' W 130°22'2 1.5
2014-Aug-21 01:33N 54°18' W 130°21'0 0.0
2014-Aug-21 00:33N 54°18' W 130°21'0 0.0
2014-Aug-20 23:33N 54°18' W 130°21'0 0.0
2014-Aug-20 22:33N 54°18' W 130°21'0 0.0
2014-Aug-20 21:33N 54°18' W 130°21'0 0.0
2014-Aug-20 20:33N 54°18' W 130°21'0 0.0
2014-Aug-20 19:33N 54°18' W 130°21'0 0.0
2014-Aug-20 18:33N 54°18' W 130°21'0 0.0
2014-Aug-20 17:33N 54°18' W 130°21'0 0.0
2014-Aug-20 16:33N 54°18' W 130°21'0 0.0
2014-Aug-20 15:33N 54°18' W 130°21'0 0.0
2014-Aug-20 14:33N 54°18' W 130°21'0 0.0
2014-Aug-20 13:33N 54°18' W 130°21'0 0.0
2014-Aug-20 12:33N 54°18' W 130°21'0 0.0
2014-Aug-20 11:33N 54°18' W 130°21'0 0.0
2014-Aug-20 10:33N 54°18' W 130°21'0 0.0
2014-Aug-20 09:33N 54°18' W 130°21'0 0.0
2014-Aug-20 08:33N 54°18' W 130°21'0 0.0
2014-Aug-20 07:33N 54°18' W 130°21'0 0.0
2014-Aug-20 06:33N 54°18' W 130°21'0 0.0
2014-Aug-20 05:33N 54°18' W 130°21'0 0.0
2014-Aug-20 04:33N 54°18' W 130°21'0 0.0
2014-Aug-20 03:33N 54°18' W 130°21'0 0.0
2014-Aug-20 02:33N 54°18' W 130°21'0 0.0
2014-Aug-20 01:33N 54°18' W 130°21'0 0.0
2014-Aug-20 00:33N 54°18' W 130°21'  

Dump ship's entire track history